Sparta, WI

7:42 PM CST on December 16, 2017 (GMT -0600)
Sparta-Fort McCoy

Weather History for KCMY - February, 2013

Change the Weather History Date:

Monday, February 4, 2013

  Actual Average Record
Temperature  
Mean Temperature 10 °F -  
Max Temperature 19 °F 27 °F 51 °F (1991)
Min Temperature 1 °F 4 °F -25 °F (1981)
Degree Days  
Heating Degree Days 55    
Moisture  
Dew Point 5 °F    
Average Humidity 70    
Maximum Humidity 92    
Minimum Humidity 42    
Precipitation  
Precipitation 0.00 in - - ()
Sea Level Pressure  
Sea Level Pressure 29.96 in    
Wind  
Wind Speed 3 mph (NNE)    
Max Wind Speed 8 mph    
Max Gust Speed -    
Visibility 9 miles    
Events Snow    
Averages and records for this station are not official NWS values.
T = Trace of Precipitation, MM = Missing Value Source: NWS Daily Summary

Daily Weather History Graph

Daily Weather History Graph

Search for Another Location

Airport or City:

Trip Planner

Search our weather history database for the weather conditions in past years. The results will help you decide how hot, cold, wet, or windy it might be!

Date:

Astronomy

Feb. 04, 2013 Rise Set
Actual Time 7:16 AM CST 5:17 PM CST
Civil Twilight 6:46 AM CST 5:48 PM CST
Nautical Twilight 6:11 AM CST 6:22 PM CST
Astronomical Twilight 5:38 AM CST 6:56 PM CST
Moon 1:54 AM CST (2/4) 11:38 AM CST (2/4)
Length of Visible Light 11h 02m
Length of Day
10h 01m
Last Quarter, 37% of the Moon is Illuminated
Feb 4
Last Quarter
Feb 10
New
Feb 17
First Quarter
Feb 25
Full
Mar 4
Last Quarter

Hourly Weather History & Observations

Time (CST) Temp. Windchill Dew Point Humidity Pressure Visibility Wind Dir Wind Speed Gust Speed Precip Events Conditions
12:15 AM 14.0 °F - 10.4 °F 86% 29.97 in 1.5 mi Calm Calm - N/A Snow Light Snow
12:35 AM 14.0 °F - 10.4 °F 86% 29.96 in 3.0 mi Calm Calm - N/A Snow Light Snow
12:55 AM 14.0 °F 8.2 °F 10.4 °F 86% 29.95 in 2.0 mi NE 3.5 mph - N/A Snow Light Snow
1:15 AM 14.0 °F 8.2 °F 10.4 °F 86% 29.95 in 2.5 mi ENE 3.5 mph - N/A Snow Light Snow
1:35 AM 14.0 °F 8.2 °F 10.4 °F 86% 29.95 in 2.5 mi ENE 3.5 mph - N/A Snow Light Snow
1:55 AM 14.0 °F 6.5 °F 10.4 °F 86% 29.95 in 1.8 mi ENE 4.6 mph - N/A Snow Light Snow
2:15 AM 14.0 °F 6.5 °F 10.4 °F 86% 29.95 in 2.0 mi ENE 4.6 mph - N/A Snow Light Snow
2:35 AM 12.2 °F 6.1 °F 10.4 °F 92% 29.95 in 3.0 mi ENE 3.5 mph - N/A Snow Light Snow
2:55 AM 12.2 °F 2.9 °F 10.4 °F 92% 29.94 in 4.0 mi ENE 5.8 mph - N/A Snow Light Snow
3:15 AM 12.2 °F 1.7 °F 8.6 °F 85% 29.93 in 5.0 mi ENE 6.9 mph - N/A Snow Light Snow
4:55 AM 12.2 °F 2.9 °F 8.6 °F 85% 29.95 in 10.0 mi ENE 5.8 mph - N/A   Overcast
5:15 AM 12.2 °F 0.7 °F 8.6 °F 85% 29.96 in 10.0 mi NNE 8.1 mph - N/A   Overcast
5:35 AM 12.2 °F 6.1 °F 8.6 °F 85% 29.97 in 10.0 mi ENE 3.5 mph - N/A   Overcast
6:15 AM 12.2 °F 4.3 °F 8.6 °F 85% 29.97 in 10.0 mi ENE 4.6 mph - N/A   Overcast
6:35 AM 12.2 °F 4.3 °F 8.6 °F 85% 29.96 in 10.0 mi ENE 4.6 mph - N/A   Overcast
6:55 AM 12.2 °F 4.3 °F 6.8 °F 79% 29.97 in 10.0 mi NE 4.6 mph - N/A   Overcast
7:15 AM 12.2 °F 2.9 °F 6.8 °F 79% 29.97 in 10.0 mi NNE 5.8 mph - N/A   Overcast
7:35 AM 12.2 °F 6.1 °F 6.8 °F 79% 29.97 in 10.0 mi NE 3.5 mph - N/A   Overcast
7:55 AM 10.4 °F 2.2 °F 6.8 °F 85% 29.98 in 10.0 mi North 4.6 mph - N/A   Overcast
8:15 AM 8.6 °F -1.3 °F 5.0 °F 85% 29.99 in 10.0 mi NNE 5.8 mph - N/A   Scattered Clouds
8:35 AM 10.4 °F 0.8 °F 5.0 °F 79% 29.99 in 10.0 mi North 5.8 mph - N/A   Clear
8:55 AM 12.2 °F 1.7 °F 5.0 °F 73% 29.99 in 10.0 mi ENE 6.9 mph - N/A   Clear
9:15 AM 12.2 °F 2.9 °F 5.0 °F 73% 29.99 in 10.0 mi NNE 5.8 mph - N/A   Clear
9:35 AM 12.2 °F 6.1 °F 5.0 °F 73% 29.99 in 10.0 mi ENE 3.5 mph - N/A   Clear
9:55 AM 14.0 °F 6.5 °F 5.0 °F 67% 29.99 in 10.0 mi NNE 4.6 mph - N/A   Clear
10:15 AM 14.0 °F 6.5 °F 5.0 °F 67% 30.00 in 10.0 mi East 4.6 mph - N/A   Clear
10:35 AM 15.8 °F 7.2 °F 5.0 °F 62% 30.00 in 10.0 mi ENE 5.8 mph - N/A   Clear
10:55 AM 15.8 °F 7.2 °F 3.2 °F 58% 30.01 in 10.0 mi NE 5.8 mph - N/A   Clear
11:15 AM 15.8 °F - 3.2 °F 58% 30.01 in 10.0 mi Calm Calm - N/A   Clear
11:35 AM 17.6 °F 9.3 °F 3.2 °F 53% 30.01 in 10.0 mi ENE 5.8 mph - N/A   Clear
11:55 AM 17.6 °F 10.7 °F 1.4 °F 49% 30.01 in 10.0 mi NNE 4.6 mph - N/A   Clear
12:15 PM 17.6 °F 10.7 °F 3.2 °F 53% 30.01 in 10.0 mi NNE 4.6 mph - N/A   Clear
12:35 PM 19.4 °F 12.8 °F 3.2 °F 49% 30.01 in 10.0 mi North 4.6 mph - N/A   Clear
12:55 PM 19.4 °F 12.8 °F 1.4 °F 46% 29.99 in 10.0 mi NNW 4.6 mph - N/A   Clear
1:15 PM 19.4 °F - 3.2 °F 49% 29.97 in 10.0 mi Calm Calm - N/A   Clear
1:35 PM 19.4 °F 14.3 °F 3.2 °F 49% 29.97 in 10.0 mi WNW 3.5 mph - N/A   Clear
1:55 PM 19.4 °F - 3.2 °F 49% 29.95 in 10.0 mi Calm Calm - N/A   Clear
2:15 PM 19.4 °F - 3.2 °F 49% 29.95 in 10.0 mi Calm Calm - N/A   Clear
2:35 PM 19.4 °F 14.3 °F 3.2 °F 49% 29.95 in 10.0 mi NW 3.5 mph - N/A   Clear
2:55 PM 19.4 °F 12.8 °F 1.4 °F 46% 29.95 in 10.0 mi NW 4.6 mph - N/A   Clear
3:15 PM 19.4 °F 14.3 °F 1.4 °F 46% 29.96 in 10.0 mi West 3.5 mph - N/A   Clear
3:35 PM 19.4 °F 9.5 °F 1.4 °F 46% 29.97 in 10.0 mi West 8.1 mph - N/A   Clear
3:55 PM 19.4 °F 11.5 °F -0.4 °F 42% 29.96 in 10.0 mi NW 5.8 mph - N/A   Clear
4:15 PM 17.6 °F 10.7 °F -0.4 °F 45% 29.95 in 10.0 mi WNW 4.6 mph - N/A   Clear
4:35 PM 19.4 °F 11.5 °F -0.4 °F 42% 29.95 in 10.0 mi West 5.8 mph - N/A   Clear
4:55 PM 17.6 °F - 1.4 °F 49% 29.95 in 10.0 mi Calm Calm - N/A   Clear
5:15 PM 17.6 °F - 1.4 °F 49% 29.93 in 10.0 mi Calm Calm - N/A   Clear
5:35 PM 14.0 °F - 3.2 °F 62% 29.94 in 10.0 mi Calm Calm - N/A   Clear
6:15 PM 14.0 °F - 1.4 °F 57% 29.95 in 10.0 mi Calm Calm - N/A   Clear
6:35 PM 14.0 °F - 3.2 °F 62% 29.95 in 10.0 mi Calm Calm - N/A   Clear
6:55 PM 15.8 °F - 3.2 °F 58% 29.94 in 10.0 mi Calm Calm - N/A   Clear
7:15 PM 15.8 °F - 3.2 °F 58% 29.95 in 10.0 mi Calm Calm - N/A   Clear
7:35 PM 12.2 °F - 5.0 °F 73% 29.95 in 10.0 mi Calm Calm - N/A   Clear
7:55 PM 12.2 °F - 5.0 °F 73% 29.95 in 10.0 mi Calm Calm - N/A   Clear
8:15 PM 10.4 °F - 3.2 °F 73% 29.94 in 10.0 mi Calm Calm - N/A   Clear
8:55 PM 10.4 °F - 3.2 °F 73% 29.94 in 10.0 mi Calm Calm - N/A   Clear
9:15 PM 8.6 °F - 3.2 °F 79% 29.93 in 10.0 mi Calm Calm - N/A   Clear
9:35 PM 8.6 °F - 3.2 °F 79% 29.92 in 10.0 mi Calm Calm - N/A   Clear
9:55 PM 8.6 °F - 3.2 °F 79% 29.91 in 10.0 mi Calm Calm - N/A   Clear
10:15 PM 5.0 °F - 3.2 °F 92% 29.90 in 10.0 mi Calm Calm - N/A   Clear
10:35 PM 5.0 °F - 1.4 °F 85% 29.89 in 10.0 mi Calm Calm - N/A   Clear
10:55 PM 3.2 °F - 1.4 °F 92% 29.90 in 10.0 mi Calm Calm - N/A   Clear
11:15 PM 3.2 °F - 1.4 °F 92% 29.90 in 10.0 mi Calm Calm - N/A   Clear
11:35 PM 1.4 °F - -2.2 °F 85% 29.90 in 10.0 mi Calm Calm - N/A   Clear
11:55 PM 1.4 °F - -0.4 °F 92% 29.89 in 10.0 mi Calm Calm - N/A   Clear